This demonstration page uses our WeatherBlox Daily Observations layout. Learn more.

Left ArrowRight Arrow

39.01783, -85.05884

Hourly Observations for August 14, 2016

Temp ( °F °C ) Dew Point ( °F °C ) Humidity (%) Winds ( mph kmh ) Pressure ( in mb ) Visibility ( mi km ) Precip ( " mm )
12:37 am 00:37 Mostly Cloudy 73 23 73 23 100 100 WSW 3 6 29.97 1015 9 14 N/A
12:52 am 00:52 Mostly Cloudy 74 23.3 74 23.3 100 100 W 5 7 29.98 1015 8 13 N/A
1:52 am 01:52 Partly Cloudy 74 23.3 73 22.8 97 97 N N/A 29.97 1015 10 16 N/A
2:52 am 02:52 Mostly Cloudy 73 22.8 73 22.8 100 100 N N/A 29.97 1015 8 13 N/A
3:52 am 03:52 Partly Cloudy 73 22.8 73 22.8 100 100 N N/A 29.97 1015 10 16 N/A
4:52 am 04:52 Cloudy 73 22.8 73 22.8 100 100 SSW 3 6 29.98 1015 10 16 N/A
6:31 am 06:31 Cloudy with Mist and Fog 73 23 73 23 100 100 S 5 7 30.00 1016 6 10 N/A
6:52 am 06:52 Mostly Cloudy 74 23.3 73 22.8 97 97 S 6 9 30.00 1016 7 11 N/A
7:08 am 07:08 Mostly Cloudy with Mist and Fog 73 23 73 23 100 100 S 6 9 30.00 1016 6 10 N/A
7:52 am 07:52 Cloudy 74 23.3 74 23.3 100 100 S 6 9 30.01 1016 7 11 N/A
8:21 am 08:21 Cloudy 73 23 73 23 100 100 SSW 7 11 30.00 1016 7 11 N/A
8:52 am 08:52 Cloudy 75 23.9 74 23.3 96 96 SSW 7 11 30.02 1017 9 14 N/A
9:31 am 09:31 Cloudy 75 24 73 23 94 94 SW 6 9 30.03 1017 9 14 N/A
9:52 am 09:52 Cloudy 76 24.4 74 23.3 94 94 SSW 5 7 30.04 1017 9 14 N/A
10:52 am 10:52 Cloudy 77 25 73 22.8 88 88 WSW 7 11 30.05 1018 9 14 N/A
11:52 am 11:52 Cloudy 78 25.6 73 22.8 85 85 WSW 8 13 30.08 1019 8 13 N/A
11:56 am 11:56 Cloudy 79 26 73 23 84 84 WSW 8 13 30.09 1019 8 13 N/A
12:05 pm 12:05 Cloudy 79 26 73 23 84 84 SW 9 15 30.09 1019 8 13 N/A
12:52 pm 12:52 Cloudy 81 27.2 73 22.8 77 77 SW 10 17 30.06 1018 10 16 N/A
1:00 pm 13:00 Cloudy 82 28 73 23 74 74 SW 8 13 30.06 1018 10 16 N/A
1:52 pm 13:52 Cloudy 85 29.4 73 22.8 68 68 W 12 19 30.06 1018 10 16 N/A
2:52 pm 14:52 Mostly Cloudy 81 27.2 73 22.8 77 77 NNW 8 13 30.05 1018 10 16 N/A
3:52 pm 15:52 Mostly Cloudy 83 28.3 74 23.3 74 74 W 8 13 30.04 1017 10 16 N/A
4:52 pm 16:52 Mostly Cloudy 83 28.3 74 23.3 74 74 WSW 8 13 30.04 1017 10 16 N/A
5:52 pm 17:52 Mostly Cloudy 82 27.8 72 22.2 72 72 WSW 8 13 30.04 1017 10 16 N/A
6:52 pm 18:52 Mostly Cloudy 81 27.2 73 22.8 77 77 W 8 13 30.05 1018 10 16 N/A
7:52 pm 19:52 Mostly Cloudy 80 26.7 69 20.6 69 69 WNW 9 15 30.05 1018 10 16 N/A
8:52 pm 20:52 Mostly Cloudy 77 25 70 21.1 79 79 N N/A 30.07 1018 10 16 N/A
9:52 pm 21:52 Partly Cloudy 76 24.4 70 21.1 82 82 N N/A 30.08 1019 10 16 N/A
10:52 pm 22:52 Cloudy 75 23.9 70 21.1 84 84 NNW 3 6 30.09 1019 10 16 N/A
11:52 pm 23:52 Cloudy 76 24.4 73 22.8 91 91 N N/A 30.10 1019 10 16 N/A

Powered by AerisWeather